Simultaneous Nadir Overpasses (SNOs) Predictions

Prediction of SNOs between NOAA-19 and TERRA Satellite Orbit:

Table of predicted SNOs for the next 14.0 days since TLE Epoch: 1/25/2014
Index Date (NOAA-19) Time (NOAA-19) Lat,Lon (NOAA-19) SZA (NOAA-19 ) Date (TERRA) Time (TERRA) Lat,Lon (TERRA) SZA (TERRA ) Distance(km) Time Diff (sec)
1 01/26/2014 15:53:38 70.39, -58.05 88.92 01/26/2014 15:54:50 70.31, -57.63 88.83 18.10 72
2 01/26/2014 16:44:27 -70.07, 109.74 91.42 01/26/2014 16:44:22 -70.09, 109.69 91.40 3.16 5
3 01/28/2014 20:37:49 70.76,-129.66 88.73 01/28/2014 20:38:58 70.66,-128.17 88.60 55.60 69
4 01/28/2014 21:28:32 -70.12, 38.66 91.94 01/28/2014 21:28:36 -70.11, 38.66 91.95 0.54 4
5 01/28/2014 22:19:24 69.24,-152.80 87.16 01/28/2014 22:18:16 69.28,-154.83 87.23 80.14 68
6 01/31/2014 01:22:00 71.13, 158.70 88.53 01/31/2014 01:23:06 70.99, 161.28 88.34 94.53 66
7 01/31/2014 02:12:36 -70.12, -32.35 92.53 01/31/2014 02:12:50 -70.12, -32.39 92.54 1.51 14
8 01/31/2014 03:03:34 69.57, 135.72 86.90 01/31/2014 03:02:23 69.67, 134.63 87.02 43.43 71
9 02/02/2014 06:56:40 -70.14,-103.37 93.14 02/02/2014 06:57:03 -70.17,-103.38 93.11 3.26 23
10 02/02/2014 07:47:44 69.91, 64.20 86.63 02/02/2014 07:46:32 69.94, 63.94 86.66 10.21 72
11 02/04/2014 11:40:44 -70.17,-174.40 93.76 02/04/2014 11:41:17 -70.15,-174.46 93.78 2.82 33
12 02/04/2014 12:31:49 70.01, -6.94 86.07 02/04/2014 12:30:44 70.03, -6.99 86.10 3.07 65
13 02/06/2014 16:24:48 -70.20, 114.55 94.39 02/06/2014 16:25:30 -70.17, 114.51 94.43 3.37 42
14 02/06/2014 17:15:53 70.06, -78.01 85.46 02/06/2014 17:14:57 70.05, -78.02 85.45 1.50 56




NCC Satellite Simultaneous Nadir Overpasses (SNOs) Prediction Service
